Location: Newark
(39.0622°N, 106.5590°E)
Time: 20:04:38
(UTC+00:00)

Vanguard 2 Rocket - Pass Details

Date: 26 January 2020
Orbit: 553 x 3327 km, 32.9° (Epoch: 26 February)

Event Time Altitude Azimuth Distance (km) Brightness Sun altitude
Rises 04:44:12 0° 262° (W) 4,665 10.6 31.9°
Reaches altitude 10° 04:48:41 10° 242° (WSW) 4,182 10.7 31.9°
Maximum altitude 04:54:56 16° 210° (SSW) 4,323 11.4 32.0°
Drops below altitude 10° 05:02:52 10° 179° (S) 5,474 12.4 32.1°
Sets 05:10:36 0° 162° (SSE) 6,958 12.4 32.1°
